Wetbulb
32.73 27.87 22.58 21.97 23.40 25.03 23.93 21.95 22.29 25.91 26.70 25.70 24.47 24.80 29.60 31.27 27.36 26.47 26.85 27.49 28.56 30.29 32.24 33.62 33.85 33.64 33.87 34.15 33.91 34.16 34.23 34.70 34.08 33.21 32.43 31.91 31.28 31.54 30.90 31.30 32.71 32.95 33.20 33.78
31.18 23.87 25.49 27.97 27.13 26.09 24.97 22.29 22.11 26.72 26.79 23.68 22.96 24.93 28.43 30.01 28.35 28.30 28.48 27.44 28.71 28.73 30.83 32.65 32.93 32.33 33.21 33.12 32.93 33.20 33.78 34.04 34.10 33.30 33.06 32.32 31.26 31.02 30.83 31.43 31.97 32.90 32.92 32.97
28.21 26.41 29.30 27.97 26.09 25.90 24.29 22.38 21.08 21.06 24.08 23.70 22.17 26.09 27.71 28.47 28.95 29.22 27.64 28.36 29.35 30.68 30.79 31.16 31.82 31.99 31.86 31.89 32.22 33.08 33.50 33.77 33.83 33.66 33.49 32.72 31.45 30.95 29.89 30.02 30.12 31.47 32.18 32.42
26.88 27.72 27.22 27.00 26.09 24.86 24.51 24.89 23.90 22.78 19.36 18.89 22.13 21.23 26.42 28.04 25.81 27.34 26.12 27.98 27.14 28.37 29.70 30.90 30.81 31.64 31.93 32.97 32.32 32.33 32.67 33.12 34.18 33.64 32.48 31.11 29.88 29.08 30.20 29.30 29.54 29.36 30.53 30.88
27.65 26.46 26.54 27.35 26.15 25.43 25.66 24.96 22.65 21.73 13.85 13.05 20.93 17.51 25.66 26.70 25.35 26.18 27.01 28.43 28.82 29.08 29.64 30.22 30.77 32.65 33.51 34.63 33.64 32.79 32.04 32.10 33.20 32.83 31.95 30.77 29.34 29.22 29.29 28.27 26.96 27.21 28.14 29.52
25.74 27.11 25.30 24.95 26.23 25.87 26.46 23.93 21.45 20.12 17.15 15.23 13.46 16.95 23.62 25.29 26.05 25.43 25.61 28.52 29.89 30.35 29.68 30.49 32.33 34.71 35.35 34.90 34.65 34.47 33.33 32.59 32.06 31.80 31.16 30.09 28.67 27.85 25.86 25.71 25.47 26.44 27.09 28.18
29.44 25.57 25.19 26.48 25.23 25.69 24.09 21.68 18.26 18.66 16.46 19.09 16.56 14.57 25.13 27.19 27.36 28.00 28.00 28.78 31.02 33.35 33.60 33.28 33.69 33.97 34.37 34.42 34.70 35.13 35.10 33.00 31.85 30.57 29.66 28.53 26.78 25.21 24.53 24.98 25.23 25.26 26.05 26.48
23.26 26.62 25.58 25.31 22.47 19.45 21.99 18.62 17.48 13.03 15.18 18.01 19.05 16.60 23.02 26.06 26.64 28.47 31.00 32.27 32.45 31.90 33.02 32.98 33.58 33.27 33.17 34.06 34.04 33.84 33.26 32.22 30.71 29.25 28.47 27.59 26.28 25.29 25.41 25.66 25.99 25.89 26.04 27.30
21.73 27.43 23.56 24.21 23.47 23.00 22.90 17.77 20.40 10.66 7.22 10.10 18.76 22.56 26.51 26.30 26.66 28.85 30.39 30.86 30.89 31.66 32.15 32.63 33.27 33.15 33.25 33.24 33.59 33.47 32.81 31.74 29.21 27.98 26.86 26.26 25.82 25.25 24.80 24.96 25.26 25.95 26.61 28.40
23.45 20.76 25.23 22.63 23.89 22.32 20.91 22.07 17.55 13.58 11.32 12.16 18.51 13.98 22.42 22.04 25.99 27.20 27.79 28.78 29.72 30.63 31.02 31.69 32.14 32.82 33.28 33.42 33.40 33.19 32.53 29.15 26.88 26.63 26.04 26.28 25.13 25.06 24.76 24.77 24.64 24.99 26.19 26.76
18.11 20.43 25.51 22.90 21.95 18.14 17.53 12.24 14.16 14.99 14.52 11.88 8.88 18.96 23.87 24.11 28.11 24.86 28.39 28.21 28.20 29.19 29.85 30.54 31.34 32.22 32.64 32.75 32.60 32.22 31.21 28.49 27.29 26.06 24.88 24.31 24.69 24.77 24.85 25.04 24.89 24.96 25.59 25.96
21.29 20.65 18.23 26.12 14.43 12.75 15.84 15.12 13.33 23.32 21.62 17.42 16.62 22.18 24.36 19.08 16.81 23.43 22.46 24.65 26.79 27.43 29.68 30.36 31.02 31.48 31.43 31.56 31.35 30.78 30.14 27.91 26.45 24.59 23.98 24.36 24.78 24.78 24.22 24.70 25.17 25.30 24.66 25.49
24.27 22.65 26.16 26.42 18.83 16.99 13.32 9.18 7.27 14.33 22.48 20.34 22.88 23.34 23.02 20.53 17.16 19.18 19.90 26.17 27.55 27.54 28.70 29.23 30.00 30.17 29.63 29.95 30.22 29.62 28.67 26.12 25.15 23.51 23.35 23.63 23.60 23.43 23.44 23.99 24.71 25.24 24.76 24.96
31.15 23.21 27.82 29.06 29.57 27.42 25.45 19.53 9.09 22.96 22.53 23.40 24.44 24.26 29.48 26.42 21.31 25.03 26.77 28.00 25.02 25.20 25.05 24.94 26.77 28.61 29.46 29.24 28.93 27.96 26.66 25.18 23.90 23.13 22.47 22.22 22.30 22.65 22.76 23.54 23.91 24.33 24.52 24.86
27.46 21.36 23.06 26.98 28.78 26.53 26.53 25.34 16.87 17.29 25.43 22.64 24.73 18.50 27.43 23.21 23.31 21.04 21.96 20.82 24.50 27.26 26.42 26.51 25.84 27.63 28.90 27.34 26.89 26.07 24.56 22.83 22.49 21.08 21.41 21.30 22.15 22.44 22.42 22.88 23.34 23.93 24.09 24.56
23.99 24.01 22.29 20.85 25.74 19.20 14.36 20.62 21.93 20.15 19.89 22.38 24.00 22.91 29.95 30.64 19.87 18.29 24.52 21.76 24.10 24.34 23.75 24.36 25.45 26.39 26.78 25.47 25.57 25.76 23.40 21.65 21.02 19.84 20.28 21.26 21.65 21.97 21.98 22.35 22.76 23.15 23.50 23.95
22.95 22.41 20.36 24.09 21.44 21.52 22.10 22.59 19.62 9.60 4.84 15.46 13.85 21.82 10.05 16.81 12.99 15.92 20.81 21.58 24.81 22.44 21.93 24.69 24.24 24.45 25.20 24.68 25.11 21.01 19.87 20.78 19.57 19.97 20.53 20.83 21.20 21.06 21.42 22.19 22.14 22.25 22.18 22.87
23.69 21.92 22.87 19.94 20.64 14.58 23.44 14.87 15.77 17.38 12.92 15.82 13.74 16.97 13.04 15.12 17.03 19.67 21.99 24.27 23.44 20.59 22.54 23.82 23.30 23.47 24.38 21.19 17.90 20.47 20.48 18.82 19.94 19.94 20.08 20.84 20.95 20.73 21.31 21.33 21.12 21.03 21.55 21.48
27.10 24.50 22.08 19.93 15.99 19.32 23.69 20.41 16.51 17.24 19.01 20.07 19.76 21.82 13.31 14.92 16.13 22.36 28.45 18.92 21.60 23.01 23.77 23.30 24.73 24.69 20.81 20.19 21.21 19.18 19.33 20.05 19.59 19.63 19.92 20.56 20.49 19.96 20.12 20.03 20.12 20.71 20.90 21.30
20.93 22.45 22.47 15.37 14.02 12.60 20.85 22.84 22.14 18.69 15.69 23.52 14.75 13.27 20.32 26.27 25.94 26.20 22.65 19.48 28.49 25.54 25.07 23.70 25.38 20.27 14.72 21.13 20.42 18.61 19.44 19.43 19.13 20.01 20.35 20.88 20.84 20.31 19.56 20.00 20.23 21.00 21.11 21.87
10.25 12.31 17.06 16.89 16.45 16.88 23.69 23.12 23.07 18.50 21.62 21.94 20.69 30.62 29.81 26.91 27.22 27.44 24.46 26.68 26.34 22.80 24.30 24.92 20.96 20.98 22.39 20.95 17.07 17.60 18.64 18.29 20.87 21.24 21.01 20.69 20.80 20.57 20.33 20.19 20.65 21.09 21.40 22.20
16.30 14.71 12.20 14.42 13.88 12.54 23.52 22.28 23.82 28.96 28.87 30.20 25.93 27.14 24.03 26.71 26.19 26.02 25.61 25.66 24.77 23.79 23.01 20.85 19.56 20.36 21.17 14.54 12.97 15.50 16.89 20.60 21.31 20.08 19.72 19.59 19.85 20.61 21.80 21.09 21.08 21.74 21.16 20.63
21.39 23.04 19.15 19.82 18.99 25.53 24.40 29.23 31.87 30.76 28.24 26.15 23.74 29.45 29.87 27.02 25.32 25.65 23.36 23.83 23.83 23.83 24.68 24.39 17.73 19.94 20.36 17.90 13.37 14.24 18.80 20.34 19.96 18.61 18.22 18.58 20.02 20.97 21.63 21.02 20.84 20.75 21.54 21.27
21.15 26.32 23.67 24.47 27.55 29.22 32.07 28.23 31.29 29.63 25.63 29.59 31.56 31.10 28.40 25.03 25.65 24.27 23.97 23.80 23.66 25.32 24.36 23.68 17.63 17.55 18.44 21.37 12.90 14.08 18.41 19.58 18.43 17.02 17.37 18.37 18.56 19.88 21.67 22.79 22.38 21.10 20.46 20.12
27.53 27.50 25.92 25.62 29.91 30.13 25.72 27.31 28.38 30.66 31.52 30.55 29.29 27.68 26.52 24.25 24.13 23.58 24.30 25.40 26.08 25.86 25.69 22.62 18.74 19.71 19.67 20.89 18.74 14.45 14.51 17.08 16.06 16.66 16.88 17.76 18.83 19.02 19.35 20.72 21.49 21.84 22.87 23.53
30.51 29.83 27.99 27.03 32.76 31.43 30.53 30.69 31.67 29.41 27.78 28.00 25.10 25.18 26.14 24.01 25.13 25.38 24.75 25.96 26.15 25.96 26.11 24.86 24.02 22.21 20.77 20.63 18.90 16.48 13.51 15.30 14.59 15.02 17.07 17.71 19.61 20.03 19.73 20.17 20.99 26.17 27.33 28.23
MSLP
1020.56 1021.94 1023.78 1024.45 1024.33 1024.08 1024.00 1024.09 1024.30 1023.68 1024.11 1023.94 1022.98 1022.08 1020.40 1019.68 1019.92 1020.51 1021.11 1021.40 1021.50 1021.46 1021.13 1020.91 1020.94 1021.05 1021.27 1021.41 1021.53 1021.46 1021.43 1021.09 1021.26 1021.44 1021.65 1021.72 1021.66 1021.36 1021.30 1021.20 1021.18 1021.14 1021.08 1020.90
1021.77 1023.60 1024.42 1024.52 1024.41 1024.41 1024.46 1024.68 1024.82 1024.20 1024.53 1024.97 1023.73 1022.06 1020.42 1019.76 1019.58 1019.93 1020.51 1021.10 1021.14 1021.25 1021.04 1020.87 1020.92 1021.09 1021.25 1021.28 1021.38 1021.34 1021.15 1021.03 1021.01 1021.10 1021.13 1021.19 1021.26 1021.10 1021.00 1020.94 1020.84 1020.71 1020.74 1020.66
1023.10 1024.45 1024.54 1024.67 1024.82 1024.98 1024.97 1025.38 1025.86 1026.50 1025.64 1025.33 1024.68 1022.47 1020.44 1019.46 1019.28 1019.42 1019.89 1020.39 1020.82 1021.04 1021.10 1021.12 1021.16 1021.16 1021.18 1021.28 1021.29 1021.11 1020.93 1020.86 1020.70 1020.79 1020.85 1020.84 1020.97 1020.84 1020.68 1020.36 1020.48 1020.59 1020.55 1020.53
1024.55 1024.88 1025.07 1025.22 1025.47 1025.81 1025.87 1026.19 1026.66 1026.97 1027.17 1026.87 1025.49 1023.50 1020.99 1019.90 1019.57 1019.73 1020.10 1020.45 1020.58 1020.69 1020.84 1021.03 1021.08 1021.08 1021.23 1021.09 1021.07 1021.03 1020.83 1020.71 1020.45 1020.46 1020.50 1020.74 1020.82 1021.08 1020.70 1020.70 1020.44 1020.41 1020.29 1020.14
1025.30 1025.48 1025.60 1025.88 1026.25 1026.40 1026.57 1026.74 1027.12 1027.47 1028.00 1028.08 1026.21 1024.84 1020.92 1020.13 1020.08 1020.10 1020.33 1020.38 1020.49 1020.55 1020.75 1020.96 1021.19 1021.37 1021.20 1021.11 1021.11 1020.89 1020.60 1020.38 1020.31 1020.31 1020.43 1020.56 1020.55 1020.70 1020.54 1020.45 1020.31 1020.05 1019.92 1019.77
1025.65 1026.08 1026.40 1026.68 1026.75 1026.88 1027.11 1027.29 1027.49 1027.95 1028.27 1028.04 1026.54 1025.33 1021.65 1020.29 1019.73 1020.20 1020.60 1020.59 1020.71 1020.85 1021.09 1021.31 1021.36 1021.31 1021.20 1021.17 1021.11 1020.84 1020.56 1020.13 1019.91 1020.04 1020.06 1020.28 1020.42 1020.56 1020.58 1020.36 1020.18 1019.82 1019.47 1019.38
1026.30 1026.61 1026.96 1027.29 1027.48 1027.47 1027.73 1028.18 1028.49 1028.79 1028.64 1028.02 1026.75 1025.84 1021.67 1020.46 1019.95 1020.18 1020.70 1021.02 1021.01 1020.95 1021.13 1021.32 1021.43 1021.56 1021.65 1021.55 1021.22 1020.98 1020.81 1020.36 1019.86 1019.93 1019.96 1020.05 1020.13 1020.32 1020.43 1020.19 1019.92 1019.61 1019.22 1018.86
1028.58 1027.55 1027.80 1028.31 1028.83 1029.22 1029.35 1029.65 1030.20 1030.65 1030.47 1028.66 1026.89 1025.08 1022.02 1021.26 1020.85 1020.97 1020.97 1021.28 1021.63 1021.70 1021.61 1021.67 1021.62 1021.73 1021.85 1021.64 1021.39 1021.19 1020.90 1020.40 1019.88 1019.84 1019.92 1019.84 1019.88 1020.14 1020.02 1019.78 1019.42 1019.13 1018.88 1018.49
1029.47 1028.73 1028.53 1028.98 1029.49 1030.28 1030.28 1030.50 1030.60 1030.81 1031.44 1029.98 1026.57 1024.13 1022.56 1022.08 1022.05 1021.90 1021.90 1022.03 1022.22 1022.17 1022.22 1022.16 1021.93 1021.86 1021.74 1021.47 1021.13 1021.04 1020.74 1020.35 1019.98 1019.98 1020.00 1019.91 1019.80 1019.71 1019.58 1019.19 1018.93 1018.66 1018.33 1018.06
1029.94 1029.63 1028.91 1029.60 1030.13 1030.79 1031.10 1031.61 1031.40 1031.42 1031.50 1030.05 1026.84 1025.21 1022.82 1023.13 1022.87 1022.78 1022.80 1022.74 1022.50 1022.38 1022.35 1022.22 1021.98 1021.75 1021.39 1021.07 1020.82 1020.72 1020.55 1020.44 1020.13 1019.93 1019.81 1019.80 1019.86 1019.55 1019.19 1018.86 1018.51 1018.24 1017.93 1017.61
1030.04 1030.37 1029.68 1029.86 1030.50 1031.02 1031.98 1032.29 1032.41 1032.04 1031.18 1030.17 1028.28 1024.59 1021.99 1022.52 1022.68 1022.95 1023.02 1022.82 1022.66 1022.38 1022.04 1021.97 1021.81 1021.48 1021.08 1020.85 1020.76 1020.62 1020.34 1020.22 1020.01 1019.78 1019.69 1019.56 1019.23 1019.04 1018.92 1018.56 1018.10 1017.83 1017.61 1017.22
1030.28 1030.34 1030.20 1029.53 1030.80 1031.58 1031.75 1032.02 1031.94 1031.75 1030.96 1030.06 1028.69 1023.49 1022.11 1022.62 1022.72 1022.98 1023.32 1023.00 1022.55 1022.33 1022.02 1021.87 1021.53 1021.27 1021.17 1021.04 1020.62 1020.42 1020.26 1019.97 1019.82 1019.77 1019.55 1019.23 1018.92 1018.67 1018.49 1018.16 1017.69 1017.40 1017.19 1016.74
1029.66 1029.93 1029.69 1029.09 1030.73 1031.28 1031.43 1031.60 1031.44 1030.99 1030.00 1028.19 1027.69 1023.23 1022.41 1022.87 1023.27 1023.21 1023.30 1022.65 1022.31 1021.95 1021.59 1021.22 1020.86 1020.85 1020.89 1020.90 1020.72 1020.32 1020.01 1019.81 1019.66 1019.51 1019.26 1019.04 1018.60 1018.34 1017.99 1017.63 1017.28 1016.91 1016.66 1016.31
1028.96 1029.36 1029.03 1028.70 1028.09 1028.73 1030.28 1030.62 1030.86 1030.25 1029.10 1026.38 1024.51 1022.61 1022.39 1022.88 1023.68 1023.40 1023.05 1022.43 1022.22 1021.89 1021.22 1021.11 1021.24 1020.98 1020.81 1020.68 1020.36 1020.06 1019.82 1019.67 1019.31 1019.22 1019.05 1018.79 1018.32 1017.74 1017.52 1017.13 1016.77 1016.41 1016.09 1015.86
1029.26 1029.37 1028.45 1027.37 1026.93 1027.77 1028.43 1028.94 1029.30 1029.18 1027.38 1026.86 1023.14 1023.94 1022.21 1022.80 1023.30 1022.82 1022.69 1022.51 1022.06 1021.54 1021.51 1021.30 1021.21 1020.82 1020.34 1020.20 1019.95 1019.74 1019.48 1019.26 1019.10 1018.97 1018.72 1018.29 1017.80 1017.38 1016.89 1016.53 1016.18 1015.86 1015.51 1015.22
1029.56 1028.78 1028.33 1027.33 1026.55 1027.00 1027.33 1026.79 1026.85 1027.22 1027.10 1026.18 1024.66 1023.83 1022.20 1022.02 1023.15 1023.37 1022.52 1022.41 1022.41 1021.97 1021.70 1021.38 1021.07 1020.52 1020.18 1019.93 1019.75 1019.43 1019.22 1018.97 1018.85 1018.59 1018.22 1017.68 1017.21 1016.83 1016.41 1015.93 1015.50 1015.22 1014.91 1014.50
1029.51 1029.14 1028.86 1026.61 1026.70 1026.60 1025.56 1023.49 1024.47 1025.66 1025.71 1025.30 1024.98 1022.84 1023.02 1023.19 1023.33 1023.05 1022.86 1022.46 1021.94 1021.73 1021.41 1021.13 1020.79 1020.27 1019.86 1019.62 1019.34 1019.10 1018.80 1018.61 1018.38 1018.01 1017.54 1017.11 1016.74 1016.22 1015.75 1015.41 1014.97 1014.51 1014.20 1013.85
1028.45 1029.14 1028.88 1027.29 1026.78 1025.17 1021.74 1021.97 1023.03 1024.08 1024.24 1024.22 1023.72 1022.76 1022.98 1023.08 1022.91 1022.58 1021.88 1021.60 1021.61 1021.32 1020.95 1020.84 1020.42 1019.87 1019.45 1019.04 1018.94 1018.58 1018.29 1017.96 1017.64 1017.24 1016.77 1016.33 1015.98 1015.56 1015.07 1014.71 1014.29 1013.94 1013.60 1013.21
1027.82 1028.68 1028.61 1028.07 1026.98 1023.51 1021.90 1021.90 1022.58 1023.37 1022.77 1022.17 1022.75 1022.36 1022.54 1023.01 1022.85 1021.85 1020.87 1020.94 1020.91 1020.74 1020.30 1020.16 1019.76 1019.26 1018.89 1018.69 1018.33 1018.01 1017.58 1017.23 1016.92 1016.35 1015.94 1015.66 1015.33 1014.90 1014.45 1014.03 1013.48 1013.09 1012.88 1012.45
1028.70 1028.76 1028.74 1028.44 1027.34 1024.15 1021.03 1020.85 1021.41 1022.18 1021.84 1021.23 1022.15 1022.59 1022.55 1022.45 1022.17 1021.13 1020.49 1020.57 1020.09 1019.70 1019.49 1019.33 1018.91 1018.69 1018.70 1017.93 1017.63 1017.43 1016.91 1016.51 1016.04 1015.56 1015.04 1014.71 1014.54 1014.12 1013.66 1013.14 1012.68 1012.15 1011.90 1011.55
1028.85 1029.10 1028.31 1027.47 1026.17 1023.02 1020.48 1020.63 1021.10 1021.66 1021.12 1020.68 1021.23 1021.05 1021.57 1021.92 1021.35 1020.45 1020.28 1019.88 1019.36 1019.12 1019.15 1018.86 1018.83 1018.66 1017.89 1017.51 1017.30 1016.82 1016.14 1015.41 1014.91 1014.61 1014.14 1013.71 1013.46 1013.23 1012.86 1012.39 1011.71 1011.37 1010.82 1010.56
1026.41 1027.01 1027.04 1026.62 1025.34 1022.28 1019.58 1020.53 1020.73 1020.21 1019.90 1020.31 1020.59 1020.48 1020.91 1020.93 1020.50 1020.25 1019.65 1019.35 1019.21 1018.86 1018.48 1018.12 1018.07 1017.56 1016.86 1016.74 1016.80 1016.19 1015.15 1014.18 1013.98 1013.74 1013.30 1012.82 1012.52 1012.23 1011.71 1011.31 1010.67 1010.39 1009.90 1009.46
1024.98 1023.54 1023.41 1023.37 1020.31 1018.92 1019.14 1018.72 1018.74 1019.13 1019.77 1020.07 1020.36 1020.50 1020.70 1020.51 1020.00 1019.46 1019.19 1018.89 1018.59 1018.14 1017.65 1017.17 1017.14 1016.58 1015.91 1015.74 1015.82 1015.72 1013.92 1013.71 1013.19 1012.91 1012.47 1012.14 1011.73 1011.21 1010.79 1010.30 1009.65 1009.27 1008.75 1008.17
1022.60 1021.85 1021.75 1021.23 1018.86 1018.32 1018.08 1018.39 1018.80 1019.41 1019.85 1020.12 1020.34 1020.09 1019.93 1020.05 1019.40 1018.93 1018.70 1018.14 1017.66 1016.92 1016.55 1016.31 1016.05 1015.76 1015.14 1014.66 1014.57 1014.52 1013.61 1013.01 1012.54 1012.02 1011.61 1011.24 1010.92 1010.27 1009.59 1009.13 1008.57 1008.10 1007.51 1007.02
1021.27 1021.00 1020.21 1019.11 1018.27 1018.10 1018.75 1018.72 1019.05 1019.55 1019.75 1019.49 1019.41 1019.46 1019.50 1019.38 1018.84 1018.55 1017.97 1017.25 1016.52 1015.97 1015.45 1015.34 1015.01 1014.66 1014.12 1013.72 1013.48 1013.41 1012.95 1012.47 1011.86 1011.41 1010.90 1010.39 1009.90 1009.34 1008.64 1008.13 1007.42 1006.76 1006.00 1005.56
1020.12 1019.60 1019.43 1017.77 1017.69 1018.14 1018.50 1018.51 1019.15 1019.26 1019.10 1019.10 1019.24 1019.21 1019.01 1018.94 1018.62 1018.00 1017.44 1016.54 1015.82 1015.19 1014.73 1014.47 1014.00 1013.77 1013.20 1012.86 1012.46 1012.36 1012.12 1011.83 1011.24 1010.64 1010.03 1009.52 1008.94 1008.25 1007.71 1006.92 1005.83 1005.17 1004.39 1003.66
Wind_Speed
6 11 4 3 3 1 0 1 4 5 2 6 2 10 16 9 2 7 8 6 8 8 5 6 5 5 5 5 6 6 6 6 2 2 2 3 4 3 3 4 6 5 4 5
7 4 2 3 1 1 0 2 5 7 1 2 6 15 6 5 2 4 8 8 9 4 4 5 5 4 4 7 7 8 8 7 5 2 4 3 2 3 3 3 4 5 5 5
7 0 3 1 3 5 1 2 2 5 9 1 7 7 4 2 4 3 2 4 4 8 7 5 5 6 5 7 8 7 8 8 7 5 3 2 1 3 3 2 2 3 4 5
6 2 2 1 2 2 4 2 1 5 6 3 5 5 4 2 2 4 4 1 1 3 3 3 3 6 6 7 7 7 8 8 6 4 3 4 3 3 3 2 2 3 5 6
2 4 4 3 2 1 5 2 2 2 3 4 4 5 7 0 3 3 4 6 5 4 2 1 4 4 5 7 7 8 8 7 7 5 5 4 4 4 3 4 6 5 4 5
3 1 2 1 3 2 4 1 1 3 3 4 4 4 6 4 4 4 3 6 6 6 4 3 3 5 7 7 7 7 8 7 6 5 5 6 5 6 5 5 6 5 3 4
4 1 1 3 3 1 7 6 6 7 6 6 2 3 9 2 2 7 8 6 5 7 7 7 8 8 7 8 8 8 9 12 8 5 6 4 5 5 7 7 5 6 4 3
4 8 3 5 4 3 3 5 6 5 3 6 2 7 6 3 4 6 7 7 4 4 4 6 7 7 7 8 8 8 9 11 7 5 6 5 5 4 4 6 6 5 4 5
3 6 2 4 2 3 0 2 3 6 0 3 4 8 6 2 3 5 5 3 5 6 7 7 8 7 7 7 8 7 9 10 7 6 5 6 6 6 6 8 6 5 6 6
3 5 2 1 1 3 4 1 3 4 3 6 5 6 7 8 10 7 5 6 6 5 6 7 7 7 5 6 7 7 8 7 6 5 4 4 6 7 7 6 7 7 8 7
4 4 3 1 5 6 3 3 4 3 4 5 4 9 7 13 18 13 9 5 7 8 7 7 7 7 7 7 7 7 7 6 6 4 5 6 7 7 6 7 7 7 7 8
3 5 3 9 2 2 3 5 5 4 3 2 2 11 1 5 6 8 7 8 8 7 7 7 7 7 7 7 8 7 6 6 5 5 5 6 8 6 7 8 8 7 8 8
5 2 5 7 3 2 3 4 4 2 2 10 6 9 2 2 4 6 7 8 8 6 7 6 7 7 7 7 7 7 6 6 6 5 5 7 8 7 8 8 8 9 8 8
5 1 8 11 12 5 3 6 5 5 5 8 16 15 17 9 4 8 10 9 8 8 6 5 7 8 7 7 7 7 6 6 6 5 6 8 9 8 8 8 9 10 9 9
4 6 5 14 17 7 11 19 11 16 20 12 17 10 19 9 8 8 7 7 9 11 9 9 7 8 9 7 8 6 6 6 5 6 8 9 9 9 8 9 9 10 10 9
2 4 1 5 14 5 7 20 21 17 17 20 24 27 25 24 4 8 12 7 10 10 9 9 8 10 10 8 8 8 7 7 6 7 10 9 9 9 9 9 9 9 10 11
6 4 3 7 1 6 12 14 7 5 4 8 10 16 1 4 3 6 8 8 11 8 8 9 10 9 10 9 8 8 7 7 7 8 9 9 9 10 9 10 10 11 10 10
8 4 3 5 2 6 9 4 7 9 7 15 7 9 7 5 5 9 9 9 9 7 8 8 7 7 7 5 6 9 7 7 8 9 10 9 9 10 10 10 11 11 9 10
3 4 3 4 3 11 8 1 6 8 8 11 15 11 5 4 1 7 5 4 6 7 9 9 9 11 7 9 10 8 8 8 8 10 10 9 9 10 10 11 12 11 10 10
3 2 3 1 4 8 7 3 4 4 7 1 5 2 2 2 7 6 5 4 13 10 9 10 11 7 7 12 6 8 11 9 11 10 11 10 10 11 12 12 13 11 10 12
3 1 11 8 7 12 9 3 3 3 6 3 5 4 3 4 6 8 6 11 9 9 11 11 9 11 14 10 7 11 11 13 11 10 11 11 10 11 12 13 12 11 11 11
9 9 6 3 6 12 8 4 5 2 3 3 4 3 3 7 11 10 12 11 12 14 12 10 9 11 12 7 5 12 15 12 10 10 11 12 11 10 10 12 12 12 12 12
4 9 7 14 12 2 6 4 4 5 4 3 2 2 9 12 11 10 9 11 13 14 14 11 8 11 13 7 7 11 17 9 10 10 12 11 12 12 12 12 12 11 11 9
4 7 6 0 4 14 7 1 4 3 2 1 5 13 11 11 10 12 12 13 10 12 11 9 8 11 14 13 7 12 14 12 11 12 11 10 11 12 12 10 10 10 10 9
5 6 5 8 11 7 3 3 5 1 5 12 10 10 9 6 12 9 10 13 14 14 13 8 10 12 15 14 13 8 11 11 11 10 10 10 9 11 11 11 11 10 12 12
6 7 8 18 13 3 5 6 6 8 9 8 4 7 7 6 12 12 13 14 13 16 15 14 14 12 14 14 14 12 9 11 10 10 9 8 9 10 10 11 12 20 24 27
Wind_Direction
16 60 48 325 4 323 246 264 271 262 63 335 292 287 294 305 203 212 224 223 228 231 264 241 240 235 257 265 264 259 273 275 262 260 277 285 254 256 247 234 245 258 265 281
31 58 283 281 306 304 229 304 288 286 346 17 347 303 288 305 333 194 194 210 221 225 261 261 234 249 271 277 278 281 270 274 256 203 228 217 248 274 253 238 251 252 253 267
101 116 314 306 39 11 251 195 336 250 324 231 321 312 336 8 13 47 163 210 216 225 238 272 263 269 293 307 313 306 285 271 268 231 235 263 300 289 302 251 238 249 254 273
84 338 347 342 58 10 320 72 360 300 21 272 20 267 277 319 40 45 40 96 128 158 194 245 294 328 336 315 313 300 291 287 280 263 242 222 227 261 257 281 274 271 257 263
294 9 16 35 352 70 254 340 273 116 102 41 324 79 255 298 113 115 87 90 94 119 162 339 340 314 315 338 329 315 306 288 281 272 240 241 253 249 277 290 295 281 267 253
100 113 61 269 287 233 328 254 139 61 98 21 246 105 280 180 175 129 70 73 82 76 39 347 301 338 348 333 321 321 321 305 282 267 266 253 263 285 299 297 301 291 266 261
343 74 77 20 330 158 35 39 336 353 5 225 206 18 242 301 37 143 134 121 76 42 19 352 345 338 326 321 320 331 326 307 302 290 289 275 266 269 271 278 277 289 287 267
63 328 23 0 104 193 24 128 146 257 274 290 260 251 270 309 94 120 120 106 83 6 331 317 311 310 300 300 307 310 306 304 306 297 295 302 294 267 262 265 273 271 266 272
50 279 108 47 94 103 262 39 182 102 149 37 255 293 319 65 85 109 117 35 329 315 301 290 296 284 283 287 296 303 310 313 310 310 317 317 305 292 280 277 272 273 277 277
195 316 86 108 108 52 109 174 37 9 339 294 285 274 235 206 200 197 184 246 272 273 293 291 282 282 278 293 299 310 302 295 290 318 319 294 288 284 277 279 280 281 280 279
130 110 275 128 190 180 31 4 29 123 131 198 292 260 210 198 204 198 217 292 301 307 295 290 292 296 301 305 296 289 297 298 299 312 288 283 284 285 283 277 277 276 280 279
217 147 268 246 69 145 130 196 149 124 250 206 216 268 155 222 220 162 239 273 274 238 265 271 288 303 303 289 298 291 299 304 308 284 286 293 294 284 276 274 274 274 271 274
185 260 302 301 7 28 174 213 143 116 95 205 234 260 316 327 271 237 266 294 306 277 288 306 320 312 298 291 289 292 311 298 291 301 303 298 290 282 279 278 280 281 278 275
154 234 203 258 259 141 224 206 217 202 221 252 227 267 280 281 238 266 287 293 279 276 291 305 306 288 275 274 284 295 298 289 298 298 293 286 286 285 281 282 281 280 280 279
161 229 226 254 273 259 266 260 215 209 239 240 267 246 261 254 262 243 251 283 294 314 312 295 281 286 294 289 291 290 281 290 285 282 285 279 281 281 278 278 276 277 276 272
179 248 174 248 260 251 251 259 248 231 242 257 264 274 269 272 260 280 270 275 283 277 274 278 285 293 294 282 278 285 287 282 274 266 275 280 278 279 280 280 277 273 275 275
181 202 176 267 360 305 274 254 198 174 237 169 198 233 211 286 269 260 277 266 270 275 281 285 282 281 285 277 278 275 271 277 270 271 277 278 276 277 277 279 280 276 274 275
163 170 197 277 318 245 243 192 164 186 222 218 288 255 209 217 249 265 242 248 271 267 271 277 271 276 275 261 269 269 259 255 268 278 280 276 272 272 279 279 278 278 274 270
136 159 249 261 229 312 288 295 152 160 277 206 223 261 266 271 308 284 257 210 233 262 270 263 271 273 272 282 278 268 276 271 271 277 280 277 269 270 275 277 276 276 276 272
94 27 199 78 249 256 225 129 145 135 292 330 152 246 276 25 299 286 279 266 309 293 282 278 285 277 279 284 282 280 281 273 271 275 277 279 279 275 274 274 276 277 272 272
111 168 220 226 261 282 261 163 155 101 249 189 189 211 227 242 236 268 286 292 270 256 284 286 274 271 277 282 278 280 277 266 271 274 279 280 276 274 272 274 271 272 271 269
172 167 201 172 231 274 156 104 190 218 263 208 228 232 264 267 271 264 268 282 290 286 282 265 257 264 276 241 241 276 274 275 274 273 277 279 277 273 276 276 277 274 271 266
261 201 199 195 215 256 205 251 208 177 204 272 56 325 259 260 259 277 273 282 283 274 281 280 250 274 287 271 219 261 276 279 273 272 273 275 277 277 277 276 276 275 266 260
262 211 248 69 222 246 276 169 143 156 169 2 260 249 252 257 275 278 283 279 278 287 285 283 270 277 282 293 242 233 274 277 272 271 275 275 273 278 275 276 275 273 268 263
222 146 241 259 274 301 64 116 131 147 238 239 244 241 252 247 272 265 284 296 299 296 296 286 267 276 280 292 286 265 256 270 272 272 273 273 272 276 279 271 269 268 265 258
184 238 255 266 291 248 247 180 195 219 242 257 274 304 287 224 277 293 294 291 293 296 299 292 288 279 278 286 284 286 266 266 268 273 273 269 278 282 276 274 278 273 279 284